Overview Statistics Trail Chart Weather Telemetry Raw packets
 

This is the latest recevied weather packets stored in our database for station/object K0APR. If no packets are shown the sender has not sent any weather packets the latest 10 day(s).

<< 66 67 68 69 70 71 72 >>
Time Temp. Humidity Pressure Rain* Wind** Luminosity Snow
1788208845 27.78° C 51% 1013.7 hPa 0 mm - 260 W/m² -
1788208540 27.78° C 50% 1013.7 hPa 0 mm - 248 W/m² -
1788208239 27.78° C 50% 1013.7 hPa 0 mm - 236 W/m² -
1788207934 28.33° C 49% 1013.7 hPa 0 mm - 230 W/m² -
1788207633 27.78° C 51% 1013.7 hPa 0 mm - 380 W/m² -
1788207332 28.33° C 51% 1013.7 hPa 0 mm - 324 W/m² -
1788207027 27.78° C 53% 1013.7 hPa 0 mm - 392 W/m² -
1788206723 28.33° C 52% 1013.7 hPa 0 mm - 552 W/m² -
1788206418 27.78° C 52% 1013.7 hPa 0 mm - 444 W/m² -
1788206113 28.33° C 50% 1013.7 hPa 0 mm - 288 W/m² -
1788205813 28.33° C 50% 1013.7 hPa 0 mm - 397 W/m² -
1788205509 27.78° C 49% 1013.7 hPa 0 mm - 356 W/m² -
1788205208 28.33° C 52% 1013.3 hPa 0 mm - 413 W/m² -
1788204904 27.78° C 52% 1013.7 hPa 0 mm - 647 W/m² -
1788204598 27.78° C 53% 1013.7 hPa 0 mm - 616 W/m² -
1788204293 27.78° C 53% 1013.7 hPa 0 mm - 529 W/m² -
1788203988 27.78° C 53% 1013.7 hPa 0 mm - 413 W/m² -
1788203685 27.78° C 54% 1013.7 hPa 0 mm - 596 W/m² -
1788203381 27.78° C 54% 1013.7 hPa 0 mm - 620 W/m² -
1788203075 27.78° C 52% 1013.7 hPa 0 mm - 612 W/m² -
1788202774 27.78° C 54% 1013.7 hPa 0 mm - 632 W/m² -
1788202471 27.22° C 52% 1013.7 hPa 0 mm - 618 W/m² -
1788202171 27.78° C 52% 1013.3 hPa 0 mm - 613 W/m² -
1788201871 27.22° C 53% 1013.7 hPa 0 mm - 615 W/m² -
1788201567 27.22° C 55% 1013.7 hPa 0 mm - 672 W/m² -

* Rain latest hour (hover to see other rain measurements)
** Current wind speed in m/s (hover to see current wind gust speed)